User: anonymous   Login
Location: Albany
(35.0000°S, 118.0000°E)
Time: 19:35:47
(UTC-04:00)
Language:

ERS-1 Rocket - Orbit

View from above orbital plane
View from above orbital plane
View from above satellite
View from above satellite

Ground track
Ground track

The orbit data is extracted from the following two-line orbital elements,

1 21610U 91050F   15108.85031013  .00000517  00000-0  17656-3 0  9992
2 21610 098.7099 144.6419 0004156 129.3669 005.1826 14.40579955246312
Epoch (UTC): 18 April 2015 20:24:26
Eccentricity: 0.0004156
inclination: 98.7099°
perigee height: 753 km
apogee height: 759 km
right ascension of ascending node: 144.6419°
argument of perigee: 129.3669°
revolutions per day: 14.40579955
mean anomaly at epoch: 5.1826°
orbit number at epoch: 24631

The dashed part of the orbit path shows where the satellite is in the earth's shadow,  

DLR